Volver al catálogo

COSMOS 252 DEB *

ActivoLEO
NORAD 18597·DEBRIS·🇷🇺 Russia

Lanzado Nov 1, 1968 desde Baikonur Cosmodrome

Loading…

Próximos Pases (próximas 24 horas)

TLE

ActualizadoSource: Space-Track

Época: Sep 13, 2026, 11:40 UTC

1 18597U 68097EQ  26256.48648037  .00000538  00000-0  79833-3 0  9990
2 18597  62.2505  77.0209 0782308  69.1244 299.1664 12.75824830595377

Sigue COSMOS 252 DEB * en tiempo real con AllMySat

Download on the App Store